< < Back
Terminal Aerodrome Forecast


Current Version              Previous Versions:   1  2  3  4  5  6  7  8  9  

Terminal Aerodrome Forecast

205
FTUS42 KMLB 281506 AAA
TAFMCO
TAF AMD
KMCO 281506Z 2815/2912 VRB03KT P6SM SCT025 SCT250
     FM281800 09005KT P6SM VCTS SCT035CB BKN250
      TEMPO 2819/2822 3SM TSRA BKN035CB BKN050
     FM282200 10008KT P6SM VCSH SCT040 BKN080
     FM290000 VRB04KT P6SM SCT070 BKN250=



Latest METAR

179
SAUS70 KWBC 290300 RRE
MTRMCO
METAR KMCO 290253Z 00000KT 10SM FEW100 SCT180 OVC250 25/25 A3009 RMK AO2
SLP188 60001 T02500250 53013 $


USA.gov is the U.S. government's official web portal to all federal, state and local government web resources and services.